Time,TemperatureF,DewpointF,PressureIn,WindDirection,WindDirectionDegrees,WindSpeedMPH,WindSpeedGustMPH,Humidity,HourlyPrecipIn,Conditions,Clouds,dailyrainin,SoftwareType,DateUTC
2013-06-14 00:10:00,53.3,47.9,29.72,WSW,240,0.0,0.0,82,0.00,,,0.00,Wunderground v.1.15,2013-06-14 04:10:00,
2013-06-14 00:20:00,52.9,47.9,29.72,WSW,240,0.0,0.0,83,0.00,,,0.00,Wunderground v.1.15,2013-06-14 04:20:00,
2013-06-14 00:30:00,52.6,47.9,29.72,WSW,240,0.0,0.0,84,0.00,,,0.00,Wunderground v.1.15,2013-06-14 04:30:00,
2013-06-14 00:40:00,52.1,47.7,29.71,WSW,240,0.0,0.0,85,0.00,,,0.00,Wunderground v.1.15,2013-06-14 04:40:00,
2013-06-14 00:50:00,51.8,47.7,29.71,WSW,240,0.0,0.0,86,0.00,,,0.00,Wunderground v.1.15,2013-06-14 04:50:00,
2013-06-14 01:00:00,51.8,48.1,29.71,NW,311,1.0,1.0,87,0.00,,,0.00,Wunderground v.1.15,2013-06-14 05:00:00,
2013-06-14 01:10:00,51.4,47.4,29.71,NW,311,0.0,0.0,86,0.00,,,0.00,Wunderground v.1.15,2013-06-14 05:10:00,
2013-06-14 01:20:00,51.2,47.5,29.71,NW,312,0.0,0.0,87,0.00,,,0.00,Wunderground v.1.15,2013-06-14 05:20:00,
2013-06-14 01:30:00,51.3,47.6,29.72,NW,312,0.0,0.0,87,0.00,,,0.00,Wunderground v.1.15,2013-06-14 05:30:00,
2013-06-14 01:40:00,51.0,47.3,29.71,NW,312,0.0,0.0,87,0.00,,,0.00,Wunderground v.1.15,2013-06-14 05:40:00,
2013-06-14 01:50:00,50.5,47.1,29.72,NW,311,0.0,0.0,88,0.00,,,0.00,Wunderground v.1.15,2013-06-14 05:50:00,
2013-06-14 02:00:00,50.1,47.0,29.71,NW,312,0.0,0.0,89,0.00,,,0.00,Wunderground v.1.15,2013-06-14 06:00:00,
2013-06-14 02:10:00,49.7,46.6,29.71,NW,312,0.0,0.0,89,0.00,,,0.00,Wunderground v.1.15,2013-06-14 06:10:00,
2013-06-14 02:20:00,49.4,46.9,29.71,NW,312,0.0,0.0,91,0.00,,,0.00,Wunderground v.1.15,2013-06-14 06:20:00,
2013-06-14 02:30:00,49.4,46.9,29.71,NW,312,0.0,0.0,91,0.00,,,0.00,Wunderground v.1.15,2013-06-14 06:30:00,
2013-06-14 02:40:00,49.2,46.7,29.71,NW,311,0.0,0.0,91,0.00,,,0.00,Wunderground v.1.15,2013-06-14 06:40:00,
2013-06-14 02:50:00,49.1,46.6,29.71,NW,311,0.0,0.0,91,0.00,,,0.00,Wunderground v.1.15,2013-06-14 06:50:00,
2013-06-14 03:00:00,48.9,46.4,29.70,NW,312,0.0,0.0,91,0.00,,,0.00,Wunderground v.1.15,2013-06-14 07:00:00,
2013-06-14 03:10:00,48.7,46.2,29.70,NW,312,0.0,0.0,91,0.00,,,0.00,Wunderground v.1.15,2013-06-14 07:10:00,
2013-06-14 03:20:00,48.5,46.3,29.70,NW,311,0.0,0.0,92,0.00,,,0.00,Wunderground v.1.15,2013-06-14 07:20:00,
2013-06-14 03:30:00,48.0,45.8,29.69,NW,311,0.0,0.0,92,0.00,,,0.00,Wunderground v.1.15,2013-06-14 07:30:00,
2013-06-14 03:40:00,47.7,45.5,29.69,NW,311,0.0,0.0,92,0.00,,,0.00,Wunderground v.1.15,2013-06-14 07:40:00,
2013-06-14 03:50:00,47.5,45.6,29.69,NW,311,0.0,0.0,93,0.00,,,0.00,Wunderground v.1.15,2013-06-14 07:50:00,
2013-06-14 04:00:00,47.4,45.8,29.69,NW,312,0.0,0.0,94,0.00,,,0.00,Wunderground v.1.15,2013-06-14 08:00:00,
2013-06-14 04:10:00,47.2,45.6,29.69,NW,312,0.0,0.0,94,0.00,,,0.00,Wunderground v.1.15,2013-06-14 08:10:00,
2013-06-14 04:20:00,46.9,45.3,29.69,NW,312,0.0,0.0,94,0.00,,,0.00,Wunderground v.1.15,2013-06-14 08:20:00,
2013-06-14 04:30:00,46.9,45.3,29.69,NW,311,0.0,2.0,94,0.00,,,0.00,Wunderground v.1.15,2013-06-14 08:30:00,
2013-06-14 04:40:00,46.8,45.2,29.69,NW,312,0.0,0.0,94,0.00,,,0.00,Wunderground v.1.15,2013-06-14 08:40:00,
2013-06-14 04:50:00,46.6,45.0,29.69,NW,311,0.0,0.0,94,0.00,,,0.00,Wunderground v.1.15,2013-06-14 08:50:00,
2013-06-14 05:00:00,46.4,45.0,29.69,NW,312,0.0,0.0,95,0.00,,,0.00,Wunderground v.1.15,2013-06-14 09:00:00,
2013-06-14 05:10:00,46.1,44.5,29.69,NW,312,0.0,0.0,94,0.00,,,0.00,Wunderground v.1.15,2013-06-14 09:10:00,
2013-06-14 05:20:00,46.4,45.0,29.70,NW,312,0.0,0.0,95,0.00,,,0.00,Wunderground v.1.15,2013-06-14 09:20:00,
2013-06-14 05:30:00,46.5,45.1,29.70,NW,312,0.0,2.0,95,0.00,,,0.00,Wunderground v.1.15,2013-06-14 09:30:00,
2013-06-14 05:40:00,46.6,45.2,29.70,NW,311,0.0,0.0,95,0.00,,,0.00,Wunderground v.1.15,2013-06-14 09:40:00,
2013-06-14 05:50:00,46.6,45.2,29.70,NW,311,0.0,0.0,95,0.00,,,0.00,Wunderground v.1.15,2013-06-14 09:50:00,
2013-06-14 06:00:00,46.8,45.4,29.70,NW,312,0.0,1.0,95,0.00,,,0.00,Wunderground v.1.15,2013-06-14 10:00:00,
2013-06-14 06:10:00,47.1,45.7,29.71,NW,312,0.0,0.0,95,0.00,,,0.00,Wunderground v.1.15,2013-06-14 10:10:00,
2013-06-14 06:20:00,47.4,46.0,29.71,NW,311,0.0,0.0,95,0.00,,,0.00,Wunderground v.1.15,2013-06-14 10:20:00,
2013-06-14 06:30:00,47.9,46.5,29.71,NW,311,0.0,0.0,95,0.00,,,0.00,Wunderground v.1.15,2013-06-14 10:30:00,
2013-06-14 06:40:00,48.4,47.0,29.70,NW,312,0.0,0.0,95,0.00,,,0.00,Wunderground v.1.15,2013-06-14 10:40:00,
2013-06-14 06:50:00,48.9,47.2,29.70,NW,312,0.0,0.0,94,0.00,,,0.00,Wunderground v.1.15,2013-06-14 10:50:00,
2013-06-14 07:00:00,49.2,47.5,29.70,NW,312,0.0,0.0,94,0.00,,,0.00,Wunderground v.1.15,2013-06-14 11:00:00,
2013-06-14 07:10:00,49.7,47.8,29.70,NW,311,0.0,0.0,93,0.00,,,0.00,Wunderground v.1.15,2013-06-14 11:10:00,
2013-06-14 07:20:00,50.5,48.6,29.70,NW,312,0.0,0.0,93,0.00,,,0.00,Wunderground v.1.15,2013-06-14 11:20:00,
2013-06-14 07:30:00,51.7,49.5,29.70,NW,311,0.0,0.0,92,0.00,,,0.00,Wunderground v.1.15,2013-06-14 11:30:00,
2013-06-14 07:40:00,52.6,49.8,29.70,NW,312,0.0,0.0,90,0.00,,,0.00,Wunderground v.1.15,2013-06-14 11:40:00,
2013-06-14 07:50:00,53.9,50.7,29.69,NW,312,0.0,0.0,89,0.00,,,0.00,Wunderground v.1.15,2013-06-14 11:50:00,
2013-06-14 08:00:00,55.9,52.1,29.70,NW,312,0.0,0.0,87,0.00,,,0.00,Wunderground v.1.15,2013-06-14 12:00:00,
2013-06-14 08:10:00,56.9,52.1,29.70,NW,311,0.0,0.0,84,0.00,,,0.00,Wunderground v.1.15,2013-06-14 12:10:00,
2013-06-14 08:20:00,57.7,53.2,29.70,NW,312,0.0,1.0,85,0.00,,,0.00,Wunderground v.1.15,2013-06-14 12:20:00,
2013-06-14 08:30:00,58.6,53.1,29.70,NW,312,0.0,0.0,82,0.00,,,0.00,Wunderground v.1.15,2013-06-14 12:30:00,
2013-06-14 08:40:00,59.7,52.8,29.69,NW,312,0.0,0.0,78,0.00,,,0.00,Wunderground v.1.15,2013-06-14 12:40:00,
2013-06-14 08:50:00,60.8,51.3,29.69,NW,312,0.0,0.0,71,0.00,,,0.00,Wunderground v.1.15,2013-06-14 12:50:00,
2013-06-14 09:00:00,62.0,50.9,29.69,WNW,300,3.0,3.0,67,0.00,,,0.00,Wunderground v.1.15,2013-06-14 13:00:00,
2013-06-14 09:10:00,62.7,52.8,29.69,North,351,4.0,6.0,70,0.00,,,0.00,Wunderground v.1.15,2013-06-14 13:10:00,
2013-06-14 09:20:00,62.4,51.3,29.69,NW,304,5.0,5.0,67,0.00,,,0.00,Wunderground v.1.15,2013-06-14 13:20:00,
2013-06-14 09:30:00,63.4,53.8,29.69,WNW,302,4.0,4.0,71,0.00,,,0.00,Wunderground v.1.15,2013-06-14 13:30:00,
2013-06-14 09:40:00,64.0,52.8,29.68,NW,321,4.0,5.0,67,0.00,,,0.00,Wunderground v.1.15,2013-06-14 13:40:00,
2013-06-14 09:50:00,64.8,53.6,29.68,NW,306,2.0,2.0,67,0.00,,,0.00,Wunderground v.1.15,2013-06-14 13:50:00,
2013-06-14 10:00:00,65.6,53.9,29.68,NNW,329,2.0,2.0,66,0.00,,,0.00,Wunderground v.1.15,2013-06-14 14:00:00,
2013-06-14 10:10:00,66.5,54.4,29.68,ENE,59,2.0,3.0,65,0.00,,,0.00,Wunderground v.1.15,2013-06-14 14:10:00,
2013-06-14 10:20:00,67.4,53.9,29.68,NNE,30,2.0,8.0,62,0.00,,,0.00,Wunderground v.1.15,2013-06-14 14:20:00,
2013-06-14 10:30:00,68.0,54.0,29.67,North,9,6.0,7.0,61,0.00,,,0.00,Wunderground v.1.15,2013-06-14 14:30:00,
2013-06-14 10:40:00,67.2,52.4,29.67,North,5,5.0,5.0,59,0.00,,,0.00,Wunderground v.1.15,2013-06-14 14:40:00,
2013-06-14 10:50:00,67.7,52.9,29.67,North,355,6.0,7.0,59,0.00,,,0.00,Wunderground v.1.15,2013-06-14 14:50:00,
2013-06-14 11:00:00,68.0,52.2,29.67,North,11,5.0,9.0,57,0.00,,,0.00,Wunderground v.1.15,2013-06-14 15:00:00,
2013-06-14 11:10:00,67.7,52.4,29.67,NNW,344,4.0,4.0,58,0.00,,,0.00,Wunderground v.1.15,2013-06-14 15:10:00,
2013-06-14 11:20:00,68.4,53.5,29.66,NW,313,3.0,5.0,59,0.00,,,0.00,Wunderground v.1.15,2013-06-14 15:20:00,
2013-06-14 11:30:00,69.0,53.6,29.66,NW,319,2.0,2.0,58,0.00,,,0.00,Wunderground v.1.15,2013-06-14 15:30:00,
2013-06-14 11:40:00,70.3,53.9,29.66,NW,321,4.0,7.0,56,0.00,,,0.00,Wunderground v.1.15,2013-06-14 15:40:00,
2013-06-14 11:50:00,71.2,54.2,29.65,NNW,336,5.0,5.0,55,0.00,,,0.00,Wunderground v.1.15,2013-06-14 15:50:00,
2013-06-14 12:00:00,71.7,53.1,29.65,NNW,327,5.0,5.0,52,0.00,,,0.00,Wunderground v.1.15,2013-06-14 16:00:00,
2013-06-14 12:10:00,72.0,55.9,29.65,NW,313,2.0,2.0,57,0.00,,,0.00,Wunderground v.1.15,2013-06-14 16:10:00,
2013-06-14 12:20:00,72.8,56.2,29.65,NNE,29,4.0,4.0,56,0.00,,,0.00,Wunderground v.1.15,2013-06-14 16:20:00,
2013-06-14 12:30:00,73.1,55.5,29.64,North,355,4.0,6.0,54,0.00,,,0.00,Wunderground v.1.15,2013-06-14 16:30:00,
2013-06-14 12:40:00,73.3,55.1,29.64,East,80,6.0,6.0,53,0.00,,,0.00,Wunderground v.1.15,2013-06-14 16:40:00,
2013-06-14 12:50:00,73.7,51.0,29.64,WNW,290,3.0,3.0,45,0.00,,,0.00,Wunderground v.1.15,2013-06-14 16:50:00,
2013-06-14 13:00:00,74.1,53.2,29.63,NNW,344,4.0,4.0,48,0.00,,,0.00,Wunderground v.1.15,2013-06-14 17:00:00,
2013-06-14 13:10:00,74.3,52.8,29.63,WNW,300,5.0,6.0,47,0.00,,,0.00,Wunderground v.1.15,2013-06-14 17:10:00,
2013-06-14 13:20:00,74.8,51.4,29.63,WNW,291,6.0,6.0,44,0.00,,,0.00,Wunderground v.1.15,2013-06-14 17:20:00,
2013-06-14 13:30:00,75.2,53.6,29.62,West,277,2.0,6.0,47,0.00,,,0.00,Wunderground v.1.15,2013-06-14 17:30:00,
2013-06-14 13:40:00,75.9,53.6,29.61,NW,308,5.0,5.0,46,0.00,,,0.00,Wunderground v.1.15,2013-06-14 17:40:00,
2013-06-14 13:50:00,76.3,52.2,29.61,NNW,334,5.0,5.0,43,0.00,,,0.00,Wunderground v.1.15,2013-06-14 17:50:00,
2013-06-14 14:00:00,75.5,53.3,29.61,NNW,348,7.0,9.0,46,0.00,,,0.00,Wunderground v.1.15,2013-06-14 18:00:00,
2013-06-14 14:10:00,75.0,53.4,29.61,NW,324,7.0,7.0,47,0.00,,,0.00,Wunderground v.1.15,2013-06-14 18:10:00,
2013-06-14 14:20:00,74.2,52.1,29.61,NW,308,4.0,4.0,46,0.00,,,0.00,Wunderground v.1.15,2013-06-14 18:20:00,
2013-06-14 14:30:00,74.0,52.5,29.61,NW,312,3.0,3.0,47,0.00,,,0.00,Wunderground v.1.15,2013-06-14 18:30:00,
2013-06-14 14:40:00,73.9,51.8,29.61,North,349,5.0,5.0,46,0.00,,,0.00,Wunderground v.1.15,2013-06-14 18:40:00,
2013-06-14 14:50:00,73.7,53.3,29.62,ENE,65,1.0,1.0,49,0.00,,,0.00,Wunderground v.1.15,2013-06-14 18:50:00,
2013-06-14 15:00:00,71.2,53.2,29.62,South,169,0.0,0.0,53,0.00,,,0.00,Wunderground v.1.15,2013-06-14 19:00:00,
2013-06-14 15:10:00,69.2,54.3,29.62,SSW,211,0.0,0.0,59,0.00,,,0.00,Wunderground v.1.15,2013-06-14 19:10:00,
2013-06-14 15:20:00,68.5,51.2,29.62,SW,222,0.0,0.0,54,0.00,,,0.00,Wunderground v.1.15,2013-06-14 19:20:00,
2013-06-14 15:30:00,69.8,52.4,29.62,ENE,57,1.0,2.0,54,0.00,,,0.00,Wunderground v.1.15,2013-06-14 19:30:00,
2013-06-14 15:40:00,69.7,53.8,29.62,ENE,63,1.0,1.0,57,0.00,,,0.00,Wunderground v.1.15,2013-06-14 19:40:00,
2013-06-14 15:50:00,70.2,55.7,29.62,East,90,1.0,4.0,60,0.00,,,0.00,Wunderground v.1.15,2013-06-14 19:50:00,
2013-06-14 16:00:00,70.1,55.6,29.62,ENE,74,1.0,1.0,60,0.00,,,0.00,Wunderground v.1.15,2013-06-14 20:00:00,
2013-06-14 16:10:00,69.4,54.4,29.61,East,81,1.0,2.0,59,0.00,,,0.00,Wunderground v.1.15,2013-06-14 20:10:00,
2013-06-14 16:20:00,68.1,52.8,29.61,ENE,73,1.0,1.0,58,0.00,,,0.00,Wunderground v.1.15,2013-06-14 20:20:00,
2013-06-14 16:30:00,67.0,52.2,29.62,East,89,1.0,1.0,59,0.00,,,0.00,Wunderground v.1.15,2013-06-14 20:30:00,
2013-06-14 16:40:00,67.0,53.5,29.62,ENE,63,0.0,0.0,62,0.00,,,0.00,Wunderground v.1.15,2013-06-14 20:40:00,
2013-06-14 16:50:00,67.1,53.2,29.62,NNE,13,1.0,1.0,61,0.00,,,0.00,Wunderground v.1.15,2013-06-14 20:50:00,
2013-06-14 17:00:00,67.3,54.7,29.62,ENE,57,0.0,0.0,64,0.00,,,0.00,Wunderground v.1.15,2013-06-14 21:00:00,
2013-06-14 17:10:00,67.4,53.5,29.62,ENE,69,0.0,0.0,61,0.00,,,0.00,Wunderground v.1.15,2013-06-14 21:10:00,
2013-06-14 17:20:00,67.1,54.1,29.62,SSE,167,0.0,0.0,63,0.00,,,0.00,Wunderground v.1.15,2013-06-14 21:20:00,
2013-06-14 17:30:00,67.1,54.5,29.62,SSE,167,0.0,0.0,64,0.00,,,0.00,Wunderground v.1.15,2013-06-14 21:30:00,
2013-06-14 17:40:00,68.0,54.5,29.62,SSE,167,0.0,0.0,62,0.00,,,0.00,Wunderground v.1.15,2013-06-14 21:40:00,
2013-06-14 17:50:00,68.6,54.2,29.63,ENE,78,0.0,0.0,60,0.00,,,0.00,Wunderground v.1.15,2013-06-14 21:50:00,
2013-06-14 18:00:00,68.9,54.9,29.63,East,84,0.0,0.0,61,0.00,,,0.00,Wunderground v.1.15,2013-06-14 22:00:00,
2013-06-14 18:10:00,68.6,54.2,29.62,East,84,0.0,0.0,60,0.00,,,0.00,Wunderground v.1.15,2013-06-14 22:10:00,
2013-06-14 18:20:00,68.1,54.1,29.62,East,84,0.0,0.0,61,0.00,,,0.00,Wunderground v.1.15,2013-06-14 22:20:00,
2013-06-14 18:30:00,66.6,54.5,29.62,SE,140,0.0,0.0,65,0.00,,,0.00,Wunderground v.1.15,2013-06-14 22:30:00,
2013-06-14 18:40:00,65.9,54.6,29.65,NNE,25,0.0,2.0,67,0.00,,,0.00,Wunderground v.1.15,2013-06-14 22:40:00,
2013-06-14 18:50:00,65.2,57.1,29.67,NW,310,4.0,4.0,75,2.08,,,0.05,Wunderground v.1.15,2013-06-14 22:50:00,
2013-06-14 19:10:00,60.5,54.3,29.66,East,82,0.0,0.0,80,0.11,,,0.15,Wunderground v.1.15,2013-06-14 23:10:00,
2013-06-14 19:20:00,60.0,54.8,29.67,ENE,61,0.0,0.0,83,0.04,,,0.15,Wunderground v.1.15,2013-06-14 23:20:00,
2013-06-14 19:30:00,59.4,55.8,29.66,ENE,62,0.0,0.0,88,0.00,,,0.15,Wunderground v.1.15,2013-06-14 23:30:00,
2013-06-14 19:40:00,59.0,56.1,29.67,ENE,62,0.0,0.0,90,0.00,,,0.15,Wunderground v.1.15,2013-06-14 23:40:00,
2013-06-14 19:50:00,59.0,56.4,29.67,ENE,62,0.0,0.0,91,0.00,,,0.15,Wunderground v.1.15,2013-06-14 23:50:00,
2013-06-14 20:00:00,59.0,56.4,29.67,ENE,61,0.0,0.0,91,0.00,,,0.15,Wunderground v.1.15,2013-06-15 00:00:00,
2013-06-14 20:10:00,59.0,56.4,29.67,ENE,61,0.0,0.0,91,0.00,,,0.15,Wunderground v.1.15,2013-06-15 00:10:00,
2013-06-14 20:20:00,58.3,56.0,29.67,ENE,61,0.0,0.0,92,0.00,,,0.15,Wunderground v.1.15,2013-06-15 00:20:00,
2013-06-14 20:30:00,57.7,55.4,29.67,ENE,61,0.0,0.0,92,0.00,,,0.15,Wunderground v.1.15,2013-06-15 00:30:00,
2013-06-14 20:40:00,57.3,55.3,29.68,ENE,61,0.0,0.0,93,0.00,,,0.15,Wunderground v.1.15,2013-06-15 00:40:00,
2013-06-14 20:50:00,56.8,54.8,29.68,South,176,1.0,1.0,93,0.00,,,0.15,Wunderground v.1.15,2013-06-15 00:50:00,
2013-06-14 21:00:00,56.4,54.4,29.68,South,176,0.0,0.0,93,0.00,,,0.15,Wunderground v.1.15,2013-06-15 01:00:00,
2013-06-14 21:10:00,55.8,53.8,29.69,South,176,0.0,0.0,93,0.00,,,0.15,Wunderground v.1.15,2013-06-15 01:10:00,
2013-06-14 21:20:00,55.9,53.9,29.69,SSW,192,0.0,0.0,93,0.00,,,0.15,Wunderground v.1.15,2013-06-15 01:20:00,
2013-06-14 21:30:00,55.7,53.7,29.69,SW,215,2.0,2.0,93,0.00,,,0.15,Wunderground v.1.15,2013-06-15 01:30:00,
2013-06-14 21:40:00,55.8,53.8,29.69,SW,215,0.0,2.0,93,0.00,,,0.15,Wunderground v.1.15,2013-06-15 01:40:00,
2013-06-14 21:50:00,55.8,53.5,29.69,SSW,210,1.0,1.0,92,0.00,,,0.15,Wunderground v.1.15,2013-06-15 01:50:00,
2013-06-14 22:00:00,55.4,53.1,29.69,SSW,210,0.0,0.0,92,0.00,,,0.15,Wunderground v.1.15,2013-06-15 02:00:00,
2013-06-14 22:10:00,54.6,52.3,29.69,SSW,210,0.0,0.0,92,0.00,,,0.15,Wunderground v.1.15,2013-06-15 02:10:00,
2013-06-14 22:20:00,54.1,52.1,29.69,SSW,210,0.0,0.0,93,0.00,,,0.15,Wunderground v.1.15,2013-06-15 02:20:00,
2013-06-14 22:30:00,53.5,51.5,29.69,SSW,210,0.0,0.0,93,0.00,,,0.15,Wunderground v.1.15,2013-06-15 02:30:00,
2013-06-14 22:40:00,53.2,51.5,29.68,SSW,210,0.0,0.0,94,0.00,,,0.15,Wunderground v.1.15,2013-06-15 02:40:00,
2013-06-14 22:50:00,52.4,50.4,29.69,SSW,210,0.0,0.0,93,0.00,,,0.15,Wunderground v.1.15,2013-06-15 02:50:00,
2013-06-14 23:00:00,52.4,51.0,29.68,SSW,211,0.0,3.0,95,0.00,,,0.15,Wunderground v.1.15,2013-06-15 03:00:00,
2013-06-14 23:10:00,53.0,51.6,29.68,SSW,211,1.0,1.0,95,0.00,,,0.15,Wunderground v.1.15,2013-06-15 03:10:00,
2013-06-14 23:20:00,52.9,51.5,29.68,SSW,211,0.0,0.0,95,0.00,,,0.15,Wunderground v.1.15,2013-06-15 03:20:00,
2013-06-14 23:30:00,52.7,51.3,29.68,SSW,211,0.0,0.0,95,0.00,,,0.15,Wunderground v.1.15,2013-06-15 03:30:00,
2013-06-14 23:40:00,52.5,51.1,29.68,SSW,211,0.0,0.0,95,0.00,,,0.15,Wunderground v.1.15,2013-06-15 03:40:00,
2013-06-14 23:50:00,52.3,50.9,29.69,SSW,211,0.0,0.0,95,0.00,,,0.15,Wunderground v.1.15,2013-06-15 03:50:00,